Time,TemperatureF,DewpointF,PressureIn,WindDirection,WindDirectionDegrees,WindSpeedMPH,WindSpeedGustMPH,Humidity,HourlyPrecipIn,Conditions,Clouds,dailyrainin,SoftwareType,DateUTC
2013-12-23 00:01:00,59.0,56.1,29.95,WSW,251,0.0,2.0,90,0.00,,CLR,0.00,VWS V13.01,2013-12-23 05:01:00,
2013-12-23 00:03:00,59.0,55.8,29.96,West,269,2.0,2.0,89,0.00,,CLR,0.00,VWS V13.01,2013-12-23 05:03:00,
2013-12-23 00:08:00,58.1,55.2,29.96,SW,222,2.0,4.0,90,0.00,,CLR,0.00,VWS V13.01,2013-12-23 05:08:00,
2013-12-23 00:13:00,58.3,55.7,29.96,SW,222,0.0,0.0,91,0.00,,CLR,0.00,VWS V13.01,2013-12-23 05:13:00,
2013-12-23 00:18:00,58.3,55.7,29.96,SW,222,0.0,0.0,91,0.00,,CLR,0.00,VWS V13.01,2013-12-23 05:18:00,
2013-12-23 00:24:00,58.4,55.8,29.95,SW,222,0.0,0.0,91,0.00,,CLR,0.00,VWS V13.01,2013-12-23 05:24:00,
2013-12-23 00:29:00,58.2,55.6,29.94,SW,222,0.0,0.0,91,0.00,,CLR,0.00,VWS V13.01,2013-12-23 05:29:00,
2013-12-23 00:34:00,57.9,55.3,29.94,West,259,2.0,3.0,91,0.00,,CLR,0.00,VWS V13.01,2013-12-23 05:34:00,
2013-12-23 00:39:00,56.9,54.6,29.94,North,349,4.0,5.0,92,0.00,,CLR,0.00,VWS V13.01,2013-12-23 05:39:00,
2013-12-23 00:44:00,55.9,53.6,29.94,NNW,343,4.0,5.0,92,0.00,,CLR,0.00,VWS V13.01,2013-12-23 05:44:00,
2013-12-23 00:50:00,55.4,53.4,29.93,West,262,1.0,5.0,93,0.00,,CLR,0.00,VWS V13.01,2013-12-23 05:50:00,
2013-12-23 00:55:00,54.9,52.9,29.93,SW,214,4.0,5.0,93,0.00,,CLR,0.00,VWS V13.01,2013-12-23 05:55:00,
2013-12-23 01:00:00,55.1,53.7,29.95,SSW,199,4.0,6.0,95,0.00,,CLR,0.00,VWS V13.01,2013-12-23 06:00:00,
2013-12-23 01:05:00,57.0,55.6,29.95,WSW,237,2.0,6.0,95,0.00,,CLR,0.00,VWS V13.01,2013-12-23 06:05:00,
2013-12-23 01:10:00,58.2,56.5,29.95,WSW,237,2.0,6.0,94,0.00,,CLR,0.00,VWS V13.01,2013-12-23 06:10:00,
2013-12-23 01:16:00,59.0,56.7,29.94,WSW,237,0.0,2.0,92,0.00,,CLR,0.00,VWS V13.01,2013-12-23 06:16:00,
2013-12-23 01:21:00,59.0,56.4,29.95,WSW,237,0.0,2.0,91,0.00,,CLR,0.00,VWS V13.01,2013-12-23 06:21:00,
2013-12-23 01:26:00,59.3,56.7,29.95,SW,228,0.0,3.0,91,0.00,,CLR,0.00,VWS V13.01,2013-12-23 06:26:00,
2013-12-23 01:31:00,59.5,56.9,29.95,SW,228,0.0,0.0,91,0.00,,CLR,0.00,VWS V13.01,2013-12-23 06:31:00,
2013-12-23 01:36:00,59.6,57.0,29.95,SW,228,0.0,0.0,91,0.00,,CLR,0.00,VWS V13.01,2013-12-23 06:36:00,
2013-12-23 01:41:00,59.6,56.7,29.95,SW,228,0.0,1.0,90,0.00,,CLR,0.00,VWS V13.01,2013-12-23 06:41:00,
2013-12-23 01:47:00,59.7,56.8,29.95,WSW,258,0.0,1.0,90,0.00,,CLR,0.00,VWS V13.01,2013-12-23 06:47:00,
2013-12-23 01:52:00,59.8,56.9,29.95,WSW,258,0.0,1.0,90,0.00,,CLR,0.00,VWS V13.01,2013-12-23 06:52:00,
2013-12-23 01:57:00,59.8,56.9,29.95,WSW,258,0.0,0.0,90,0.00,,CLR,0.00,VWS V13.01,2013-12-23 06:57:00,
2013-12-23 02:02:00,59.7,56.8,29.95,WSW,258,0.0,0.0,90,0.00,,CLR,0.00,VWS V13.01,2013-12-23 07:02:00,
2013-12-23 02:07:00,59.4,56.5,29.96,WSW,258,0.0,0.0,90,0.00,,CLR,0.00,VWS V13.01,2013-12-23 07:07:00,
2013-12-23 02:12:00,59.0,56.1,29.95,WSW,258,0.0,0.0,90,0.00,,CLR,0.00,VWS V13.01,2013-12-23 07:12:00,
2013-12-23 02:17:00,59.0,56.4,29.95,WSW,258,2.0,3.0,91,0.01,,CLR,0.01,VWS V13.01,2013-12-23 07:17:00,
2013-12-23 02:23:00,58.2,55.6,29.96,WSW,258,0.0,3.0,91,0.01,,CLR,0.01,VWS V13.01,2013-12-23 07:23:00,
2013-12-23 02:28:00,57.8,55.5,29.96,WSW,258,0.0,0.0,92,0.01,,CLR,0.01,VWS V13.01,2013-12-23 07:28:00,
2013-12-23 02:33:00,58.0,56.0,29.96,WSW,258,0.0,0.0,93,0.01,,CLR,0.01,VWS V13.01,2013-12-23 07:33:00,
2013-12-23 02:39:00,58.0,56.3,29.96,WSW,258,0.0,0.0,94,0.02,,CLR,0.02,VWS V13.01,2013-12-23 07:39:00,
2013-12-23 02:44:00,57.9,56.2,29.95,WSW,258,0.0,1.0,94,0.02,,CLR,0.02,VWS V13.01,2013-12-23 07:44:00,
2013-12-23 02:49:00,57.7,56.0,29.95,WSW,258,1.0,2.0,94,0.02,,CLR,0.02,VWS V13.01,2013-12-23 07:49:00,
2013-12-23 02:54:00,57.3,55.6,29.96,WSW,258,0.0,2.0,94,0.03,,CLR,0.03,VWS V13.01,2013-12-23 07:54:00,
2013-12-23 02:59:00,57.1,55.4,29.96,WSW,258,0.0,0.0,94,0.03,,CLR,0.03,VWS V13.01,2013-12-23 07:59:00,
2013-12-23 03:04:00,56.8,55.1,29.97,WSW,258,0.0,0.0,94,0.04,,CLR,0.04,VWS V13.01,2013-12-23 08:04:00,
2013-12-23 03:09:00,56.5,55.1,29.97,WSW,258,0.0,0.0,95,0.05,,CLR,0.05,VWS V13.01,2013-12-23 08:09:00,
2013-12-23 03:14:00,56.4,55.0,29.96,WSW,258,0.0,0.0,95,0.06,,CLR,0.06,VWS V13.01,2013-12-23 08:14:00,
2013-12-23 03:19:00,56.6,55.5,29.95,WSW,258,0.0,0.0,96,0.07,,CLR,0.07,VWS V13.01,2013-12-23 08:19:00,
2013-12-23 03:24:00,56.1,55.0,29.96,WSW,258,1.0,1.0,96,0.07,,CLR,0.07,VWS V13.01,2013-12-23 08:24:00,
2013-12-23 03:29:00,55.7,54.6,29.96,NW,316,2.0,3.0,96,0.07,,CLR,0.08,VWS V13.01,2013-12-23 08:29:00,
2013-12-23 03:35:00,55.2,54.1,29.97,NW,316,0.0,3.0,96,0.07,,CLR,0.08,VWS V13.01,2013-12-23 08:35:00,
2013-12-23 03:40:00,55.1,54.0,29.97,NW,316,0.0,3.0,96,0.09,,CLR,0.10,VWS V13.01,2013-12-23 08:40:00,
2013-12-23 03:45:00,55.0,53.9,29.96,NW,316,0.0,0.0,96,0.10,,CLR,0.12,VWS V13.01,2013-12-23 08:45:00,
2013-12-23 03:50:00,55.2,54.1,29.96,NW,316,0.0,0.0,96,0.11,,CLR,0.14,VWS V13.01,2013-12-23 08:50:00,
2013-12-23 03:55:00,55.6,54.8,29.96,NW,316,0.0,0.0,97,0.12,,CLR,0.14,VWS V13.01,2013-12-23 08:55:00,
2013-12-23 04:00:00,55.8,55.0,29.96,NW,316,0.0,0.0,97,0.12,,CLR,0.15,VWS V13.01,2013-12-23 09:00:00,
2013-12-23 04:05:00,55.7,54.9,29.96,NW,316,0.0,0.0,97,0.13,,CLR,0.16,VWS V13.01,2013-12-23 09:05:00,
2013-12-23 04:10:00,55.6,54.8,29.95,NW,316,1.0,2.0,97,0.14,,CLR,0.17,VWS V13.01,2013-12-23 09:10:00,
2013-12-23 04:16:00,55.5,54.7,29.95,NW,316,0.0,2.0,97,0.12,,CLR,0.18,VWS V13.01,2013-12-23 09:16:00,
2013-12-23 04:21:00,55.5,54.7,29.96,NW,316,0.0,2.0,97,0.12,,CLR,0.18,VWS V13.01,2013-12-23 09:21:00,
2013-12-23 04:26:00,55.4,54.6,29.95,NW,316,0.0,2.0,97,0.14,,CLR,0.20,VWS V13.01,2013-12-23 09:26:00,
2013-12-23 04:31:00,55.5,54.7,29.95,NW,316,0.0,2.0,97,0.15,,CLR,0.22,VWS V13.01,2013-12-23 09:31:00,
2013-12-23 04:36:00,55.8,55.0,29.94,NW,317,3.0,3.0,97,0.16,,CLR,0.23,VWS V13.01,2013-12-23 09:36:00,
2013-12-23 04:41:00,55.3,54.5,29.94,NW,317,0.0,3.0,97,0.17,,CLR,0.24,VWS V13.01,2013-12-23 09:41:00,
2013-12-23 04:47:00,54.9,54.1,29.94,NW,317,0.0,1.0,97,0.15,,CLR,0.26,VWS V13.01,2013-12-23 09:47:00,
2013-12-23 04:53:00,55.0,54.2,29.93,NW,317,0.0,1.0,97,0.16,,CLR,0.27,VWS V13.01,2013-12-23 09:53:00,
2013-12-23 04:58:00,55.3,54.5,29.94,NW,317,0.0,0.0,97,0.13,,CLR,0.29,VWS V13.01,2013-12-23 09:58:00,
2013-12-23 05:03:00,55.3,54.5,29.93,NW,317,1.0,2.0,97,0.15,,CLR,0.30,VWS V13.01,2013-12-23 10:03:00,
2013-12-23 05:08:00,55.5,55.0,29.93,NW,317,0.0,2.0,98,0.16,,CLR,0.31,VWS V13.01,2013-12-23 10:08:00,
2013-12-23 05:13:00,55.7,55.2,29.94,NW,314,0.0,0.0,98,0.15,,CLR,0.32,VWS V13.01,2013-12-23 10:13:00,
2013-12-23 05:19:00,55.7,55.2,29.94,NW,309,1.0,2.0,98,0.18,,CLR,0.35,VWS V13.01,2013-12-23 10:19:00,
2013-12-23 05:24:00,56.1,55.5,29.93,NW,307,2.0,3.0,98,0.22,,CLR,0.40,VWS V13.01,2013-12-23 10:24:00,
2013-12-23 05:29:00,56.3,55.8,29.93,WSW,245,3.0,3.0,98,0.21,,CLR,0.41,VWS V13.01,2013-12-23 10:29:00,
2013-12-23 05:34:00,56.5,55.9,29.94,South,178,0.0,3.0,98,0.21,,CLR,0.41,VWS V13.01,2013-12-23 10:34:00,
2013-12-23 05:39:00,56.6,56.0,29.93,South,177,3.0,3.0,98,0.22,,CLR,0.42,VWS V13.01,2013-12-23 10:39:00,
2013-12-23 05:44:00,56.5,55.9,29.92,SSE,151,6.0,7.0,98,0.18,,CLR,0.42,VWS V13.01,2013-12-23 10:44:00,
2013-12-23 05:49:00,56.8,56.2,29.91,SE,145,5.0,7.0,98,0.20,,CLR,0.44,VWS V13.01,2013-12-23 10:49:00,
2013-12-23 05:54:00,57.0,56.4,29.91,SE,139,2.0,8.0,98,0.20,,CLR,0.44,VWS V13.01,2013-12-23 10:54:00,
2013-12-23 06:00:00,57.0,56.4,29.89,ESE,112,3.0,5.0,98,0.16,,CLR,0.44,VWS V13.01,2013-12-23 11:00:00,
2013-12-23 06:06:00,56.8,56.2,29.91,SE,124,1.0,5.0,98,0.16,,CLR,0.44,VWS V13.01,2013-12-23 11:06:00,
2013-12-23 06:11:00,56.0,55.5,29.95,NNW,335,10.0,13.0,98,0.16,,CLR,0.44,VWS V13.01,2013-12-23 11:11:00,
2013-12-23 06:16:00,55.9,55.3,29.93,North,351,0.0,10.0,98,0.13,,CLR,0.44,VWS V13.01,2013-12-23 11:16:00,
2013-12-23 06:22:00,55.9,55.3,29.91,SE,131,0.0,10.0,98,0.13,,CLR,0.44,VWS V13.01,2013-12-23 11:22:00,
2013-12-23 06:27:00,55.7,55.2,29.92,SE,128,0.0,1.0,98,0.13,,CLR,0.44,VWS V13.01,2013-12-23 11:27:00,
2013-12-23 06:32:00,55.9,55.3,29.93,NNE,13,3.0,4.0,98,0.04,,CLR,0.44,VWS V13.01,2013-12-23 11:32:00,
2013-12-23 06:37:00,55.9,55.3,29.94,NNW,343,3.0,4.0,98,0.04,,CLR,0.44,VWS V13.01,2013-12-23 11:37:00,
2013-12-23 06:42:00,55.9,55.3,29.94,North,349,2.0,4.0,98,0.04,,CLR,0.44,VWS V13.01,2013-12-23 11:42:00,
2013-12-23 06:47:00,55.8,55.2,29.95,North,349,0.0,4.0,98,0.02,,CLR,0.44,VWS V13.01,2013-12-23 11:47:00,
2013-12-23 06:52:00,55.8,55.2,29.93,North,349,0.0,4.0,98,0.02,,CLR,0.44,VWS V13.01,2013-12-23 11:52:00,
2013-12-23 06:57:00,55.9,55.3,29.94,NNW,340,3.0,4.0,98,0.02,,CLR,0.44,VWS V13.01,2013-12-23 11:57:00,
2013-12-23 07:02:00,55.9,55.3,29.94,NNW,341,0.0,4.0,98,0.00,,CLR,0.44,VWS V13.01,2013-12-23 12:02:00,
2013-12-23 07:07:00,55.9,55.3,29.94,NNW,341,0.0,4.0,98,0.00,,CLR,0.44,VWS V13.01,2013-12-23 12:07:00,
2013-12-23 07:13:00,55.9,55.3,29.94,NNW,341,0.0,0.0,98,0.00,,CLR,0.44,VWS V13.01,2013-12-23 12:13:00,
2013-12-23 07:19:00,55.9,55.3,29.94,WSW,254,0.0,3.0,98,0.00,,CLR,0.44,VWS V13.01,2013-12-23 12:19:00,
2013-12-23 07:24:00,55.9,55.3,29.91,ESE,110,0.0,4.0,98,0.00,,CLR,0.44,VWS V13.01,2013-12-23 12:24:00,
2013-12-23 07:29:00,55.9,55.3,29.94,South,171,0.0,1.0,98,0.00,,CLR,0.44,VWS V13.01,2013-12-23 12:29:00,
2013-12-23 07:34:00,55.9,55.3,29.95,SW,226,2.0,3.0,98,0.00,,CLR,0.44,VWS V13.01,2013-12-23 12:34:00,
2013-12-23 07:39:00,56.0,55.5,29.97,WSW,254,0.0,3.0,98,0.00,,CLR,0.44,VWS V13.01,2013-12-23 12:39:00,
2013-12-23 07:45:00,56.0,55.5,29.94,WSW,254,0.0,1.0,98,0.00,,CLR,0.44,VWS V13.01,2013-12-23 12:45:00,
2013-12-23 07:50:00,56.0,55.5,29.95,WSW,254,0.0,1.0,98,0.00,,CLR,0.44,VWS V13.01,2013-12-23 12:50:00,
2013-12-23 07:55:00,55.9,55.3,29.96,WSW,254,2.0,2.0,98,0.00,,CLR,0.44,VWS V13.01,2013-12-23 12:55:00,
2013-12-23 08:00:00,55.9,55.3,29.96,WSW,254,0.0,0.0,98,0.01,,CLR,0.45,VWS V13.01,2013-12-23 13:00:00,
2013-12-23 08:06:00,55.9,55.3,29.97,WSW,254,0.0,3.0,98,0.01,,CLR,0.45,VWS V13.01,2013-12-23 13:06:00,
2013-12-23 08:11:00,55.9,55.3,29.99,West,267,4.0,5.0,98,0.01,,CLR,0.45,VWS V13.01,2013-12-23 13:11:00,
2013-12-23 08:16:00,55.9,55.3,29.98,West,266,0.0,5.0,98,0.01,,CLR,0.45,VWS V13.01,2013-12-23 13:16:00,
2013-12-23 08:21:00,55.8,55.2,29.97,WSW,242,3.0,5.0,98,0.01,,CLR,0.45,VWS V13.01,2013-12-23 13:21:00,
2013-12-23 08:27:00,55.7,55.2,29.97,NW,309,2.0,4.0,98,0.01,,CLR,0.45,VWS V13.01,2013-12-23 13:27:00,
2013-12-23 08:32:00,55.8,55.2,29.98,NW,305,9.0,10.0,98,0.02,,CLR,0.46,VWS V13.01,2013-12-23 13:32:00,
2013-12-23 08:37:00,55.7,55.2,29.97,NNW,336,4.0,10.0,98,0.02,,CLR,0.46,VWS V13.01,2013-12-23 13:37:00,
2013-12-23 08:42:00,55.4,54.8,29.98,North,353,5.0,13.0,98,0.02,,CLR,0.46,VWS V13.01,2013-12-23 13:42:00,
2013-12-23 08:47:00,55.2,54.7,29.99,West,266,5.0,14.0,98,0.02,,CLR,0.46,VWS V13.01,2013-12-23 13:47:00,
2013-12-23 08:52:00,55.0,54.5,30.00,WNW,301,7.0,14.0,98,0.02,,CLR,0.46,VWS V13.01,2013-12-23 13:52:00,
2013-12-23 08:57:00,54.9,54.3,29.99,WNW,285,10.0,11.0,98,0.02,,CLR,0.46,VWS V13.01,2013-12-23 13:57:00,
2013-12-23 09:02:00,54.8,54.2,29.99,WNW,295,5.0,13.0,98,0.02,,CLR,0.46,VWS V13.01,2013-12-23 14:02:00,
2013-12-23 09:07:00,54.7,54.2,29.98,WNW,284,5.0,13.0,98,0.02,,CLR,0.46,VWS V13.01,2013-12-23 14:07:00,
2013-12-23 09:13:00,54.6,53.8,29.98,West,270,4.0,7.0,97,0.01,,CLR,0.46,VWS V13.01,2013-12-23 14:13:00,
2013-12-23 09:18:00,54.6,53.8,29.99,WNW,294,4.0,9.0,97,0.01,,CLR,0.46,VWS V13.01,2013-12-23 14:18:00,
2013-12-23 09:23:00,54.7,53.9,30.00,WNW,299,4.0,11.0,97,0.01,,CLR,0.46,VWS V13.01,2013-12-23 14:23:00,
2013-12-23 09:28:00,54.9,53.8,30.00,WNW,285,6.0,6.0,96,0.01,,CLR,0.46,VWS V13.01,2013-12-23 14:28:00,
2013-12-23 09:33:00,54.9,53.8,30.00,WNW,283,6.0,7.0,96,0.01,,CLR,0.46,VWS V13.01,2013-12-23 14:33:00,
2013-12-23 09:38:00,55.0,53.9,30.00,WNW,282,0.0,7.0,96,0.01,,CLR,0.46,VWS V13.01,2013-12-23 14:38:00,
2013-12-23 09:43:00,55.0,53.9,30.00,West,270,4.0,5.0,96,0.00,,CLR,0.46,VWS V13.01,2013-12-23 14:43:00,
2013-12-23 09:48:00,55.1,54.0,30.01,West,280,5.0,10.0,96,0.00,,CLR,0.46,VWS V13.01,2013-12-23 14:48:00,
2013-12-23 09:53:00,55.1,53.7,30.01,NW,308,2.0,10.0,95,0.00,,CLR,0.46,VWS V13.01,2013-12-23 14:53:00,
2013-12-23 09:58:00,55.0,53.6,30.03,West,275,8.0,11.0,95,0.00,,CLR,0.46,VWS V13.01,2013-12-23 14:58:00,
2013-12-23 10:04:00,55.1,53.7,30.04,WNW,296,2.0,11.0,95,0.00,,CLR,0.46,VWS V13.01,2013-12-23 15:04:00,
2013-12-23 10:09:00,55.0,53.3,30.03,NW,306,6.0,11.0,94,0.00,,CLR,0.46,VWS V13.01,2013-12-23 15:09:00,
2013-12-23 10:14:00,54.9,53.2,30.02,WNW,294,6.0,12.0,94,0.00,,CLR,0.46,VWS V13.01,2013-12-23 15:14:00,
2013-12-23 10:19:00,54.9,52.9,30.02,NW,321,3.0,12.0,93,0.00,,CLR,0.46,VWS V13.01,2013-12-23 15:19:00,
2013-12-23 10:24:00,54.8,52.8,30.01,NNW,342,4.0,12.0,93,0.00,,CLR,0.46,VWS V13.01,2013-12-23 15:24:00,
2013-12-23 10:29:00,54.7,52.4,30.03,NW,319,6.0,10.0,92,0.01,,CLR,0.47,VWS V13.01,2013-12-23 15:29:00,
2013-12-23 10:34:00,54.7,52.1,30.03,NW,312,6.0,11.0,91,0.01,,CLR,0.47,VWS V13.01,2013-12-23 15:34:00,
2013-12-23 10:39:00,54.7,52.1,30.04,NW,322,9.0,15.0,91,0.01,,CLR,0.47,VWS V13.01,2013-12-23 15:39:00,
2013-12-23 10:45:00,54.6,52.0,30.04,NW,321,5.0,11.0,91,0.01,,CLR,0.47,VWS V13.01,2013-12-23 15:45:00,
2013-12-23 10:50:00,54.6,51.7,30.03,NNW,343,1.0,15.0,90,0.01,,CLR,0.47,VWS V13.01,2013-12-23 15:50:00,
2013-12-23 10:55:00,54.6,51.7,30.03,North,351,6.0,15.0,90,0.01,,CLR,0.47,VWS V13.01,2013-12-23 15:55:00,
2013-12-23 11:00:00,54.5,51.6,30.02,WNW,294,7.0,13.0,90,0.01,,CLR,0.47,VWS V13.01,2013-12-23 16:00:00,
2013-12-23 11:05:00,54.6,51.4,30.02,NW,316,14.0,16.0,89,0.01,,CLR,0.47,VWS V13.01,2013-12-23 16:05:00,
2013-12-23 11:10:00,54.6,51.4,30.01,WNW,293,5.0,16.0,89,0.01,,CLR,0.47,VWS V13.01,2013-12-23 16:10:00,
2013-12-23 11:16:00,54.6,51.4,30.00,NW,321,6.0,11.0,89,0.01,,CLR,0.47,VWS V13.01,2013-12-23 16:16:00,
2013-12-23 11:21:00,54.6,51.4,30.00,North,359,10.0,11.0,89,0.01,,CLR,0.47,VWS V13.01,2013-12-23 16:21:00,
2013-12-23 11:26:00,54.6,51.1,30.01,NW,322,4.0,12.0,88,0.01,,CLR,0.47,VWS V13.01,2013-12-23 16:26:00,
2013-12-23 11:31:00,54.6,51.1,30.01,North,358,10.0,14.0,88,0.01,,CLR,0.47,VWS V13.01,2013-12-23 16:31:00,
2013-12-23 11:36:00,54.6,51.1,30.01,WNW,286,9.0,15.0,88,0.01,,CLR,0.47,VWS V13.01,2013-12-23 16:36:00,
2013-12-23 11:41:00,54.5,50.7,30.02,NW,307,15.0,17.0,87,0.01,,CLR,0.47,VWS V13.01,2013-12-23 16:41:00,
2013-12-23 11:46:00,54.2,50.1,30.03,NNW,328,18.0,27.0,86,0.00,,CLR,0.47,VWS V13.01,2013-12-23 16:46:00,
2013-12-23 11:51:00,52.6,47.9,30.05,North,359,14.0,30.0,84,0.00,,CLR,0.47,VWS V13.01,2013-12-23 16:51:00,
2013-12-23 11:57:00,51.5,46.8,30.06,NNW,342,15.0,18.0,84,0.00,,CLR,0.47,VWS V13.01,2013-12-23 16:57:00,
2013-12-23 12:02:00,51.1,46.4,30.05,NNW,334,9.0,20.0,84,0.00,,CLR,0.47,VWS V13.01,2013-12-23 17:02:00,
2013-12-23 12:07:00,50.8,46.2,30.05,NW,324,17.0,22.0,84,0.00,,CLR,0.47,VWS V13.01,2013-12-23 17:07:00,
2013-12-23 12:12:00,50.7,45.7,30.05,NNW,330,13.0,15.0,83,0.00,,CLR,0.47,VWS V13.01,2013-12-23 17:12:00,
2013-12-23 12:17:00,50.5,45.8,30.03,NW,315,6.0,17.0,84,0.00,,CLR,0.47,VWS V13.01,2013-12-23 17:17:00,
2013-12-23 12:22:00,50.4,45.8,30.05,NW,305,8.0,17.0,84,0.00,,CLR,0.47,VWS V13.01,2013-12-23 17:22:00,
2013-12-23 12:27:00,50.3,45.0,30.05,WNW,295,13.0,20.0,82,0.00,,CLR,0.47,VWS V13.01,2013-12-23 17:27:00,
2013-12-23 12:33:00,50.2,44.6,30.05,NNW,348,17.0,21.0,81,0.00,,CLR,0.47,VWS V13.01,2013-12-23 17:33:00,
2013-12-23 12:38:00,50.0,44.4,30.05,WNW,291,21.0,24.0,81,0.00,,CLR,0.47,VWS V13.01,2013-12-23 17:38:00,
2013-12-23 12:43:00,49.9,44.0,30.05,North,359,6.0,22.0,80,0.00,,CLR,0.47,VWS V13.01,2013-12-23 17:43:00,
2013-12-23 12:48:00,49.9,44.0,30.06,NW,324,15.0,22.0,80,0.00,,CLR,0.47,VWS V13.01,2013-12-23 17:48:00,
2013-12-23 12:53:00,49.9,43.7,30.06,West,272,6.0,22.0,79,0.00,,CLR,0.47,VWS V13.01,2013-12-23 17:53:00,
2013-12-23 12:58:00,49.8,43.6,30.06,WNW,302,11.0,14.0,79,0.00,,CLR,0.47,VWS V13.01,2013-12-23 17:58:00,
2013-12-23 13:03:00,49.7,43.5,30.06,NNW,339,10.0,22.0,79,0.00,,CLR,0.47,VWS V13.01,2013-12-23 18:03:00,
2013-12-23 13:08:00,49.7,43.5,30.07,NW,323,11.0,22.0,79,0.00,,CLR,0.47,VWS V13.01,2013-12-23 18:08:00,
2013-12-23 13:13:00,49.7,43.1,30.06,NNW,336,11.0,18.0,78,0.00,,CLR,0.47,VWS V13.01,2013-12-23 18:13:00,
2013-12-23 13:19:00,49.7,43.1,30.06,NNW,332,6.0,18.0,78,0.00,,CLR,0.47,VWS V13.01,2013-12-23 18:19:00,
2013-12-23 13:24:00,49.6,43.0,30.05,WNW,303,5.0,18.0,78,0.00,,CLR,0.47,VWS V13.01,2013-12-23 18:24:00,
2013-12-23 13:29:00,49.6,43.0,30.06,NW,305,5.0,16.0,78,0.00,,CLR,0.47,VWS V13.01,2013-12-23 18:29:00,
2013-12-23 13:34:00,49.5,42.6,30.07,NNW,339,13.0,25.0,77,0.00,,CLR,0.47,VWS V13.01,2013-12-23 18:34:00,
2013-12-23 13:39:00,49.4,42.5,30.07,NW,305,10.0,25.0,77,0.00,,CLR,0.47,VWS V13.01,2013-12-23 18:39:00,
2013-12-23 13:44:00,49.2,42.0,30.07,NW,307,8.0,17.0,76,0.00,,CLR,0.47,VWS V13.01,2013-12-23 18:44:00,
2013-12-23 13:49:00,49.2,42.0,30.07,NW,314,13.0,21.0,76,0.00,,CLR,0.47,VWS V13.01,2013-12-23 18:49:00,
2013-12-23 13:54:00,49.1,41.5,30.07,NW,321,12.0,25.0,75,0.00,,CLR,0.47,VWS V13.01,2013-12-23 18:54:00,
2013-12-23 14:00:00,49.0,41.4,30.07,WNW,293,16.0,16.0,75,0.00,,CLR,0.47,VWS V13.01,2013-12-23 19:00:00,
2013-12-23 14:05:00,48.9,41.3,30.08,WNW,302,11.0,22.0,75,0.00,,CLR,0.47,VWS V13.01,2013-12-23 19:05:00,
2013-12-23 14:10:00,48.8,41.2,30.08,North,355,20.0,23.0,75,0.00,,CLR,0.47,VWS V13.01,2013-12-23 19:10:00,
2013-12-23 14:15:00,48.7,41.1,30.08,NW,318,6.0,18.0,75,0.00,,CLR,0.47,VWS V13.01,2013-12-23 19:15:00,
2013-12-23 14:20:00,48.7,41.1,30.08,NW,310,6.0,18.0,75,0.00,,CLR,0.47,VWS V13.01,2013-12-23 19:20:00,
2013-12-23 14:25:00,48.7,41.1,30.09,West,267,15.0,21.0,75,0.00,,CLR,0.47,VWS V13.01,2013-12-23 19:25:00,
2013-12-23 14:31:00,48.4,40.5,30.09,WNW,283,17.0,27.0,74,0.00,,CLR,0.47,VWS V13.01,2013-12-23 19:31:00,
2013-12-23 14:36:00,48.2,40.3,30.09,WNW,297,5.0,27.0,74,0.00,,CLR,0.47,VWS V13.01,2013-12-23 19:36:00,
2013-12-23 14:41:00,48.1,40.6,30.09,NW,304,9.0,27.0,75,0.00,,CLR,0.47,VWS V13.01,2013-12-23 19:41:00,
2013-12-23 14:46:00,47.9,40.7,30.10,WNW,285,15.0,19.0,76,0.00,,CLR,0.47,VWS V13.01,2013-12-23 19:46:00,
2013-12-23 14:52:00,47.5,40.0,30.10,NW,326,17.0,25.0,75,0.00,,CLR,0.47,VWS V13.01,2013-12-23 19:52:00,
2013-12-23 14:57:00,47.3,40.1,30.11,WNW,299,12.0,12.0,76,0.00,,CLR,0.47,VWS V13.01,2013-12-23 19:57:00,
2013-12-23 15:02:00,47.0,39.5,30.11,NNW,339,12.0,25.0,75,0.00,,CLR,0.47,VWS V13.01,2013-12-23 20:02:00,
2013-12-23 15:07:00,46.5,39.0,30.12,NW,322,16.0,25.0,75,0.00,,CLR,0.47,VWS V13.01,2013-12-23 20:07:00,
2013-12-23 15:12:00,46.3,38.8,30.12,NNW,347,13.0,13.0,75,0.00,,CLR,0.47,VWS V13.01,2013-12-23 20:12:00,
2013-12-23 15:17:00,45.9,38.8,30.13,NNE,14,10.0,20.0,76,0.00,,CLR,0.47,VWS V13.01,2013-12-23 20:17:00,
2013-12-23 15:22:00,45.6,37.8,30.13,WNW,288,15.0,24.0,74,0.00,,CLR,0.47,VWS V13.01,2013-12-23 20:22:00,
2013-12-23 15:27:00,45.4,38.0,30.13,West,271,14.0,23.0,75,0.00,,CLR,0.47,VWS V13.01,2013-12-23 20:27:00,
2013-12-23 15:33:00,45.2,37.1,30.13,WNW,303,9.0,23.0,73,0.00,,CLR,0.47,VWS V13.01,2013-12-23 20:33:00,
2013-12-23 15:38:00,45.0,36.9,30.14,NW,309,16.0,23.0,73,0.00,,CLR,0.47,VWS V13.01,2013-12-23 20:38:00,
2013-12-23 15:43:00,44.8,36.7,30.14,NNW,345,12.0,18.0,73,0.00,,CLR,0.47,VWS V13.01,2013-12-23 20:43:00,
2013-12-23 15:48:00,44.6,36.8,30.14,NNW,333,13.0,19.0,74,0.00,,CLR,0.47,VWS V13.01,2013-12-23 20:48:00,
2013-12-23 15:53:00,44.4,36.7,30.15,NW,316,5.0,22.0,74,0.00,,CLR,0.47,VWS V13.01,2013-12-23 20:53:00,
2013-12-23 15:58:00,44.3,36.5,30.15,WNW,303,15.0,17.0,74,0.00,,CLR,0.47,VWS V13.01,2013-12-23 20:58:00,
2013-12-23 16:03:00,44.1,36.0,30.16,NNE,26,6.0,24.0,73,0.00,,CLR,0.47,VWS V13.01,2013-12-23 21:03:00,
2013-12-23 16:09:00,43.9,35.8,30.16,NW,305,24.0,24.0,73,0.00,,CLR,0.47,VWS V13.01,2013-12-23 21:09:00,
2013-12-23 16:14:00,43.8,35.7,30.17,North,7,7.0,17.0,73,0.00,,CLR,0.47,VWS V13.01,2013-12-23 21:14:00,
2013-12-23 16:19:00,43.7,35.6,30.17,NW,321,13.0,19.0,73,0.00,,CLR,0.47,VWS V13.01,2013-12-23 21:19:00,
2013-12-23 16:24:00,43.6,35.2,30.17,North,3,6.0,24.0,72,0.00,,CLR,0.47,VWS V13.01,2013-12-23 21:24:00,
2013-12-23 16:29:00,43.4,35.3,30.17,NW,324,17.0,17.0,73,0.00,,CLR,0.47,VWS V13.01,2013-12-23 21:29:00,
2013-12-23 16:35:00,43.3,34.9,30.17,North,353,12.0,31.0,72,0.00,,CLR,0.47,VWS V13.01,2013-12-23 21:35:00,
2013-12-23 16:40:00,43.1,34.7,30.18,WNW,301,11.0,31.0,72,0.00,,CLR,0.47,VWS V13.01,2013-12-23 21:40:00,
2013-12-23 16:45:00,42.9,34.8,30.17,North,359,8.0,12.0,73,0.00,,CLR,0.47,VWS V13.01,2013-12-23 21:45:00,
2013-12-23 16:50:00,42.8,34.8,30.17,NNW,330,12.0,22.0,73,0.00,,CLR,0.47,VWS V13.01,2013-12-23 21:50:00,
2013-12-23 16:55:00,42.6,34.6,30.18,NW,321,6.0,22.0,73,0.00,,CLR,0.47,VWS V13.01,2013-12-23 21:55:00,
2013-12-23 17:00:00,42.4,34.0,30.18,West,278,10.0,23.0,72,0.00,,CLR,0.47,VWS V13.01,2013-12-23 22:00:00,
2013-12-23 17:06:00,42.1,34.1,30.18,North,8,11.0,23.0,73,0.00,,CLR,0.47,VWS V13.01,2013-12-23 22:06:00,
2013-12-23 17:11:00,41.9,33.9,30.18,NW,305,8.0,24.0,73,0.00,,CLR,0.47,VWS V13.01,2013-12-23 22:11:00,
2013-12-23 17:16:00,41.6,33.3,30.18,NW,324,10.0,31.0,72,0.00,,CLR,0.47,VWS V13.01,2013-12-23 22:16:00,
2013-12-23 17:21:00,41.4,33.4,30.18,North,350,17.0,31.0,73,0.00,,CLR,0.47,VWS V13.01,2013-12-23 22:21:00,
2013-12-23 17:26:00,41.1,33.5,30.18,NNW,336,10.0,31.0,74,0.00,,CLR,0.47,VWS V13.01,2013-12-23 22:26:00,
2013-12-23 17:31:00,41.1,33.5,30.19,NNW,343,7.0,28.0,74,0.00,,CLR,0.47,VWS V13.01,2013-12-23 22:31:00,
2013-12-23 17:36:00,40.9,32.9,30.19,NW,326,30.0,30.0,73,0.00,,CLR,0.47,VWS V13.01,2013-12-23 22:36:00,
2013-12-23 17:41:00,40.7,32.7,30.19,NNW,345,15.0,30.0,73,0.00,,CLR,0.47,VWS V13.01,2013-12-23 22:41:00,
2013-12-23 17:46:00,40.6,33.0,30.19,NNW,344,13.0,25.0,74,0.00,,CLR,0.47,VWS V13.01,2013-12-23 22:46:00,
2013-12-23 17:52:00,40.3,33.0,30.20,NW,315,16.0,25.0,75,0.00,,CLR,0.47,VWS V13.01,2013-12-23 22:52:00,
2013-12-23 17:57:00,40.1,32.8,30.19,North,359,14.0,16.0,75,0.00,,CLR,0.47,VWS V13.01,2013-12-23 22:57:00,
2013-12-23 18:02:00,39.8,32.2,30.20,WNW,301,14.0,23.0,74,0.00,,CLR,0.47,VWS V13.01,2013-12-23 23:02:00,
2013-12-23 18:07:00,39.5,31.9,30.20,WNW,303,21.0,29.0,74,0.00,,CLR,0.47,VWS V13.01,2013-12-23 23:07:00,
2013-12-23 18:12:00,39.2,32.0,30.20,WNW,301,10.0,18.0,75,0.00,,CLR,0.47,VWS V13.01,2013-12-23 23:12:00,
2013-12-23 18:18:00,39.1,31.9,30.20,NW,308,6.0,23.0,75,0.00,,CLR,0.47,VWS V13.01,2013-12-23 23:18:00,
2013-12-23 18:23:00,38.9,31.7,30.21,WNW,296,5.0,23.0,75,0.00,,CLR,0.47,VWS V13.01,2013-12-23 23:23:00,
2013-12-23 18:28:00,38.7,31.8,30.21,NW,317,12.0,13.0,76,0.00,,CLR,0.47,VWS V13.01,2013-12-23 23:28:00,
2013-12-23 18:33:00,38.6,31.4,30.22,WNW,293,5.0,20.0,75,0.00,,CLR,0.47,VWS V13.01,2013-12-23 23:33:00,
2013-12-23 18:38:00,38.5,31.0,30.22,NW,320,13.0,20.0,74,0.00,,CLR,0.47,VWS V13.01,2013-12-23 23:38:00,
2013-12-23 18:43:00,38.4,31.2,30.22,WNW,286,4.0,17.0,75,0.00,,CLR,0.47,VWS V13.01,2013-12-23 23:43:00,
2013-12-23 18:49:00,38.3,31.1,30.22,NW,324,11.0,21.0,75,0.00,,CLR,0.47,VWS V13.01,2013-12-23 23:49:00,
2013-12-23 18:54:00,38.2,30.7,30.22,WNW,301,11.0,21.0,74,0.00,,CLR,0.47,VWS V13.01,2013-12-23 23:54:00,
2013-12-23 18:59:00,38.1,30.6,30.22,NNW,332,10.0,19.0,74,0.00,,CLR,0.47,VWS V13.01,2013-12-23 23:59:00,
2013-12-23 19:04:00,38.1,30.2,30.22,WNW,303,3.0,21.0,73,0.00,,CLR,0.47,VWS V13.01,2013-12-24 00:04:00,
2013-12-23 19:09:00,38.0,29.8,30.22,NNW,335,9.0,21.0,72,0.00,,CLR,0.47,VWS V13.01,2013-12-24 00:09:00,
2013-12-23 19:14:00,38.1,29.5,30.22,NW,312,6.0,15.0,71,0.00,,CLR,0.47,VWS V13.01,2013-12-24 00:14:00,
2013-12-23 19:19:00,38.1,29.5,30.23,North,351,4.0,15.0,71,0.00,,CLR,0.47,VWS V13.01,2013-12-24 00:19:00,
2013-12-23 19:24:00,38.1,29.5,30.24,NNW,334,5.0,15.0,71,0.00,,CLR,0.47,VWS V13.01,2013-12-24 00:24:00,
2013-12-23 19:30:00,38.2,30.0,30.24,NNW,327,3.0,6.0,72,0.00,,CLR,0.47,VWS V13.01,2013-12-24 00:30:00,
2013-12-23 19:35:00,38.2,29.6,30.24,NNW,335,8.0,11.0,71,0.00,,CLR,0.47,VWS V13.01,2013-12-24 00:35:00,
2013-12-23 19:40:00,38.1,29.5,30.24,WNW,293,5.0,15.0,71,0.00,,CLR,0.47,VWS V13.01,2013-12-24 00:40:00,
2013-12-23 19:45:00,38.1,29.9,30.24,North,1,10.0,12.0,72,0.00,,CLR,0.47,VWS V13.01,2013-12-24 00:45:00,
2013-12-23 19:50:00,38.1,29.9,30.24,NW,314,9.0,13.0,72,0.00,,CLR,0.47,VWS V13.01,2013-12-24 00:50:00,
2013-12-23 19:55:00,38.0,29.8,30.24,NNW,334,5.0,13.0,72,0.00,,CLR,0.47,VWS V13.01,2013-12-24 00:55:00,
2013-12-23 20:00:00,38.0,30.1,30.24,NW,315,3.0,13.0,73,0.00,,CLR,0.47,VWS V13.01,2013-12-24 01:00:00,
2013-12-23 20:05:00,38.0,30.1,30.25,NW,320,11.0,15.0,73,0.00,,CLR,0.47,VWS V13.01,2013-12-24 01:05:00,
2013-12-23 20:10:00,38.0,30.1,30.24,North,354,4.0,15.0,73,0.00,,CLR,0.47,VWS V13.01,2013-12-24 01:10:00,
2013-12-23 20:15:00,37.9,30.0,30.24,North,359,10.0,17.0,73,0.00,,CLR,0.47,VWS V13.01,2013-12-24 01:15:00,
2013-12-23 20:21:00,37.8,29.9,30.24,North,351,7.0,17.0,73,0.00,,CLR,0.47,VWS V13.01,2013-12-24 01:21:00,
2013-12-23 20:26:00,37.7,29.5,30.24,NNW,330,12.0,17.0,72,0.00,,CLR,0.47,VWS V13.01,2013-12-24 01:26:00,
2013-12-23 20:31:00,37.7,29.5,30.24,North,10,8.0,13.0,72,0.00,,CLR,0.47,VWS V13.01,2013-12-24 01:31:00,
2013-12-23 20:36:00,37.7,29.2,30.24,North,10,9.0,19.0,71,0.00,,CLR,0.47,VWS V13.01,2013-12-24 01:36:00,
2013-12-23 20:41:00,37.6,29.1,30.24,NNW,348,4.0,19.0,71,0.00,,CLR,0.47,VWS V13.01,2013-12-24 01:41:00,
2013-12-23 20:46:00,37.6,29.4,30.24,NW,323,4.0,10.0,72,0.00,,CLR,0.47,VWS V13.01,2013-12-24 01:46:00,
2013-12-23 20:51:00,37.5,29.3,30.24,North,358,7.0,14.0,72,0.00,,CLR,0.47,VWS V13.01,2013-12-24 01:51:00,
2013-12-23 20:56:00,37.5,29.0,30.24,NNW,336,3.0,14.0,71,0.00,,CLR,0.47,VWS V13.01,2013-12-24 01:56:00,
2013-12-23 21:01:00,37.5,29.0,30.24,NNW,346,5.0,11.0,71,0.00,,CLR,0.47,VWS V13.01,2013-12-24 02:01:00,
2013-12-23 21:06:00,37.5,29.0,30.24,North,353,14.0,17.0,71,0.00,,CLR,0.47,VWS V13.01,2013-12-24 02:06:00,
2013-12-23 21:12:00,37.5,29.0,30.24,NNW,345,5.0,11.0,71,0.00,,CLR,0.47,VWS V13.01,2013-12-24 02:12:00,
2013-12-23 21:17:00,37.4,28.9,30.25,North,355,4.0,11.0,71,0.00,,CLR,0.47,VWS V13.01,2013-12-24 02:17:00,
2013-12-23 21:22:00,37.3,29.1,30.25,NW,324,3.0,11.0,72,0.00,,CLR,0.47,VWS V13.01,2013-12-24 02:22:00,
2013-12-23 21:27:00,37.3,29.1,30.25,WNW,286,2.0,3.0,72,0.00,,CLR,0.47,VWS V13.01,2013-12-24 02:27:00,
2013-12-23 21:32:00,37.2,29.4,30.25,North,351,6.0,8.0,73,0.00,,CLR,0.47,VWS V13.01,2013-12-24 02:32:00,
2013-12-23 21:37:00,37.1,28.9,30.25,NNE,22,1.0,8.0,72,0.00,,CLR,0.47,VWS V13.01,2013-12-24 02:37:00,
2013-12-23 21:42:00,37.0,28.8,30.25,WNW,285,7.0,7.0,72,0.00,,CLR,0.47,VWS V13.01,2013-12-24 02:42:00,
2013-12-23 21:47:00,36.9,29.1,30.25,NW,317,4.0,7.0,73,0.00,,CLR,0.47,VWS V13.01,2013-12-24 02:47:00,
2013-12-23 21:52:00,36.7,28.9,30.26,NW,307,6.0,8.0,73,0.00,,CLR,0.47,VWS V13.01,2013-12-24 02:52:00,
2013-12-23 21:57:00,36.6,28.8,30.26,NNW,328,3.0,6.0,73,0.00,,CLR,0.47,VWS V13.01,2013-12-24 02:57:00,
2013-12-23 22:03:00,36.5,28.4,30.26,WNW,284,9.0,11.0,72,0.00,,CLR,0.47,VWS V13.01,2013-12-24 03:03:00,
2013-12-23 22:08:00,36.4,28.2,30.26,WNW,288,5.0,11.0,72,0.00,,CLR,0.47,VWS V13.01,2013-12-24 03:08:00,
2013-12-23 22:13:00,36.2,27.7,30.26,NW,304,11.0,11.0,71,0.00,,CLR,0.47,VWS V13.01,2013-12-24 03:13:00,
2013-12-23 22:18:00,36.1,27.3,30.26,NNW,330,6.0,17.0,70,0.00,,CLR,0.47,VWS V13.01,2013-12-24 03:18:00,
2013-12-23 22:23:00,35.9,27.1,30.26,WSW,257,8.0,17.0,70,0.00,,CLR,0.47,VWS V13.01,2013-12-24 03:23:00,
2013-12-23 22:28:00,35.8,27.0,30.26,NW,311,10.0,12.0,70,0.00,,CLR,0.47,VWS V13.01,2013-12-24 03:28:00,
2013-12-23 22:33:00,35.7,26.9,30.26,NW,320,9.0,15.0,70,0.00,,CLR,0.47,VWS V13.01,2013-12-24 03:33:00,
2013-12-23 22:39:00,35.6,26.8,30.26,NNW,328,4.0,15.0,70,0.00,,CLR,0.47,VWS V13.01,2013-12-24 03:39:00,
2013-12-23 22:44:00,35.5,27.0,30.26,WNW,283,6.0,12.0,71,0.00,,CLR,0.47,VWS V13.01,2013-12-24 03:44:00,
2013-12-23 22:49:00,35.5,26.7,30.26,WNW,286,6.0,14.0,70,0.00,,CLR,0.47,VWS V13.01,2013-12-24 03:49:00,
2013-12-23 22:54:00,35.4,27.0,30.26,North,350,6.0,14.0,71,0.00,,CLR,0.47,VWS V13.01,2013-12-24 03:54:00,
2013-12-23 22:59:00,35.4,27.0,30.26,NNW,345,6.0,14.0,71,0.00,,CLR,0.47,VWS V13.01,2013-12-24 03:59:00,
2013-12-23 23:04:00,35.3,26.9,30.27,NW,326,6.0,14.0,71,0.00,,CLR,0.47,VWS V13.01,2013-12-24 04:04:00,
2013-12-23 23:09:00,35.3,26.9,30.27,NW,304,3.0,14.0,71,0.00,,CLR,0.47,VWS V13.01,2013-12-24 04:09:00,
2013-12-23 23:14:00,35.3,26.9,30.27,NNW,327,4.0,14.0,71,0.00,,CLR,0.47,VWS V13.01,2013-12-24 04:14:00,
2013-12-23 23:19:00,35.2,26.8,30.27,NW,322,4.0,14.0,71,0.00,,CLR,0.47,VWS V13.01,2013-12-24 04:19:00,
2013-12-23 23:24:00,35.1,26.7,30.27,NNW,342,6.0,14.0,71,0.00,,CLR,0.47,VWS V13.01,2013-12-24 04:24:00,
2013-12-23 23:29:00,35.1,26.7,30.27,NW,322,6.0,10.0,71,0.00,,CLR,0.47,VWS V13.01,2013-12-24 04:29:00,
2013-12-23 23:34:00,35.0,26.6,30.27,NNW,330,9.0,10.0,71,0.00,,CLR,0.47,VWS V13.01,2013-12-24 04:34:00,
2013-12-23 23:39:00,35.0,26.6,30.26,WNW,297,9.0,10.0,71,0.00,,CLR,0.47,VWS V13.01,2013-12-24 04:39:00,
2013-12-23 23:44:00,35.0,26.6,30.27,NW,315,6.0,10.0,71,0.00,,CLR,0.47,VWS V13.01,2013-12-24 04:44:00,
2013-12-23 23:50:00,35.0,26.6,30.26,NW,317,7.0,10.0,71,0.00,,CLR,0.47,VWS V13.01,2013-12-24 04:50:00,
2013-12-23 23:55:00,35.0,26.6,30.26,NNW,327,4.0,10.0,71,0.00,,CLR,0.47,VWS V13.01,2013-12-24 04:55:00,